sat.trackr.live / text

‹ back to catalog

STARLINK-4451

NORAD 53492 · 2022-099AD

PAYLOAD ACTIVE UNKNOWN

§ Identity

Operator
Country
US
Launch date
2022-08-12
Launch site
AFWTR
Launch vehicle
Mass (kg)
RCS (m²)

Purposes: comms

External: N2YO · Heavens-Above · Gunter

§ Orbital elements

Epoch: 2026-05-25T04:00:03.998880Z

Period
94.36 min
Inclination
97.6018°
Eccentricity
0.0001508
Mean motion
15.26084360 rev/d
Perigee alt
486.5 km
Apogee alt
488.6 km
Semi-major
6,865.7 km
B*
3.4866e-3
RAAN
266.1419°
Arg perigee
56.8191°
Mean anomaly
93.0054°
Rev number
579

§ Raw data

STARLINK-44511 53492U 22099AD  26145.16671295  .00090821  00000+0  34866-2 0  99982 53492  97.6018 266.1419 0001508  56.8191  93.0054 15.26084360  5796

JSON: /api/v1/satellites/53492 · /tle

For live sub-satellite position, see the globe view (requires WebGL).

§ Visibility from observer

Set your observer location to see the next 7 days of passes ≥ 10°. The values pass through the URL so the page stays shareable.

No JS? Fill the form by hand. The geolocation button needs JavaScript.